TimeCST,TemperatureF,Dew PointF,Humidity,Sea Level PressureIn,VisibilityMPH,Wind Direction,Wind SpeedMPH,Gust SpeedMPH,PrecipitationIn,Events,Conditions,WindDirDegrees,DateUTC
1:51 AM,35.1,27.0,72,30.37,10.0,West,4.6,-,N/A,,Clear,260,2013-01-17 07:51:00
2:51 AM,36.0,28.0,73,30.37,10.0,West,8.1,-,N/A,,Clear,260,2013-01-17 08:51:00
3:51 AM,35.1,28.0,76,30.37,10.0,WNW,3.5,-,N/A,,Clear,290,2013-01-17 09:51:00
4:51 AM,34.0,28.0,79,30.39,10.0,West,6.9,-,N/A,,Clear,270,2013-01-17 10:51:00
5:51 AM,34.0,27.0,75,30.42,10.0,West,6.9,-,N/A,,Clear,270,2013-01-17 11:51:00
6:51 AM,34.0,27.0,75,30.45,10.0,West,6.9,-,N/A,,Clear,260,2013-01-17 12:51:00
7:51 AM,33.1,27.0,78,30.48,10.0,WNW,4.6,-,N/A,,Clear,290,2013-01-17 13:51:00
8:51 AM,37.0,28.0,70,30.51,10.0,West,6.9,-,N/A,,Clear,270,2013-01-17 14:51:00
9:51 AM,44.1,30.9,60,30.52,10.0,West,8.1,-,N/A,,Clear,280,2013-01-17 15:51:00
10:51 AM,50.0,30.9,48,30.53,10.0,Calm,Calm,-,N/A,,Clear,0,2013-01-17 16:51:00
11:51 AM,54.0,30.0,40,30.51,10.0,NNE,4.6,-,N/A,,Clear,20,2013-01-17 17:51:00
12:51 PM,57.9,28.0,32,30.48,10.0,North,5.8,-,N/A,,Clear,10,2013-01-17 18:51:00
1:51 PM,59.0,28.0,31,30.45,10.0,NNE,5.8,-,N/A,,Clear,30,2013-01-17 19:51:00
2:51 PM,60.1,28.0,30,30.43,10.0,NNE,9.2,-,N/A,,Clear,20,2013-01-17 20:51:00
3:51 PM,62.1,28.0,28,30.43,10.0,NE,5.8,-,N/A,,Clear,40,2013-01-17 21:51:00
4:51 PM,60.1,28.9,31,30.45,10.0,NE,5.8,-,N/A,,Clear,50,2013-01-17 22:51:00
5:51 PM,55.0,30.0,38,30.46,10.0,ENE,6.9,-,N/A,,Clear,60,2013-01-17 23:51:00
7:51 PM,42.1,30.0,62,30.50,10.0,Calm,Calm,-,N/A,,Clear,0,2013-01-18 01:51:00
8:51 PM,39.9,28.0,63,30.51,10.0,South,3.5,-,N/A,,Clear,170,2013-01-18 02:51:00
9:51 PM,37.9,28.0,68,30.52,10.0,SSW,4.6,-,N/A,,Clear,210,2013-01-18 03:51:00
10:51 PM,36.0,28.0,73,30.51,10.0,Calm,Calm,-,N/A,,Clear,0,2013-01-18 04:51:00
11:51 PM,33.1,27.0,78,30.50,10.0,Calm,Calm,-,N/A,,Clear,0,2013-01-18 05:51:00